NCG08 EHRD-ZZZZ

Flight info

Callsign NCG08
Flight time N/A
Altitude 1000
Route SCRAMBLE
Aircraft EC45/L-VGD/C

Departure

Time 2026-04-30 19:14
Airport Rotterdam The Hague Airport (EHRD)

Arrival

Time N/A
Airport ZZZZ
Time Latitude Longitude Altitude Speed Heading
2026-04-30 19:04 51.95116 4.44035 -37 ft 0 kts 53°
2026-04-30 19:06 51.95116 4.44034 -37 ft 0 kts 53°
2026-04-30 19:11 51.95116 4.44033 -37 ft 0 kts 53°
2026-04-30 19:12 51.95115 4.44033 -37 ft 0 kts 53°
2026-04-30 19:13 51.95175 4.43923 4 ft 30 kts 320°
2026-04-30 19:13 51.95447 4.43769 37 ft 20 kts 10°
2026-04-30 19:13 51.95698 4.43838 237 ft 54 kts
2026-04-30 19:14 51.96132 4.43458 436 ft 92 kts 305°
2026-04-30 19:14 51.96227 4.42340 484 ft 112 kts 262°
2026-04-30 19:14 51.96189 4.40979 596 ft 129 kts 269°
2026-04-30 19:14 51.96234 4.39550 621 ft 136 kts 272°
2026-04-30 19:15 51.96310 4.37970 629 ft 136 kts 272°
2026-04-30 19:15 51.97189 4.35114 634 ft 149 kts 307°
2026-04-30 19:15 51.97780 4.33745 635 ft 147 kts 305°
2026-04-30 19:16 51.98346 4.32374 643 ft 147 kts 303°
2026-04-30 19:16 51.98907 4.30989 627 ft 147 kts 306°
2026-04-30 19:16 52.00501 4.29064 636 ft 142 kts 333°
2026-04-30 19:17 52.01370 4.28293 632 ft 143 kts 335°
2026-04-30 19:17 52.03127 4.26769 634 ft 145 kts 336°
2026-04-30 19:17 52.04009 4.25998 643 ft 142 kts 335°
2026-04-30 19:18 52.05169 4.24955 635 ft 143 kts 334°
2026-04-30 19:18 52.06670 4.23915 633 ft 139 kts 358°
2026-04-30 19:18 52.07595 4.24091 633 ft 132 kts 19°
2026-04-30 19:19 52.08488 4.24462 633 ft 133 kts 21°
2026-04-30 19:19 52.09085 4.24754 633 ft 132 kts 23°
2026-04-30 19:19 52.10508 4.26387 643 ft 120 kts 50°
2026-04-30 19:20 52.11093 4.27300 635 ft 110 kts 48°
2026-04-30 19:20 52.11612 4.28130 641 ft 100 kts 49°
2026-04-30 19:20 52.12913 4.27824 633 ft 117 kts 314°
2026-04-30 19:21 52.13364 4.26618 621 ft 136 kts 303°
2026-04-30 19:21 52.14447 4.23818 674 ft 146 kts 306°
2026-04-30 19:22 52.15853 4.21601 677 ft 137 kts 350°
2026-04-30 19:22 52.18527 4.22169 678 ft 131 kts 11°
2026-04-30 19:23 52.20879 4.23278 688 ft 101 kts 49°
2026-04-30 19:24 52.22113 4.23267 676 ft 114 kts 317°
2026-04-30 19:24 52.22297 4.22033 680 ft 114 kts 257°
2026-04-30 19:24 52.21314 4.20634 677 ft 87 kts 188°
2026-04-30 19:25 52.19967 4.20652 678 ft 63 kts 97°
2026-04-30 19:26 52.20747 4.21551 679 ft 76 kts 25°
2026-04-30 19:26 52.21703 4.21991 592 ft 74 kts 14°
2026-04-30 19:26 52.22113 4.21396 597 ft 91 kts 284°
2026-04-30 19:27 52.21458 4.20455 587 ft 54 kts 142°
2026-04-30 19:27 52.21183 4.21173 222 ft 29 kts 81°
2026-04-30 19:28 52.21221 4.21343 115 ft 3 kts 47°
2026-04-30 19:28 52.21215 4.21360 114 ft 0 kts 39°
2026-04-30 19:29 52.21215 4.21362 113 ft 0 kts 39°
2026-04-30 19:30 52.21215 4.21363 83 ft 0 kts 39°
2026-04-30 19:31 52.21214 4.21361 83 ft 2 kts 34°
2026-04-30 19:31 52.21345 4.21312 340 ft 42 kts 14°
2026-04-30 19:32 52.21760 4.20881 625 ft 101 kts 304°
2026-04-30 19:32 52.21837 4.19639 711 ft 120 kts 239°
2026-04-30 19:32 52.21419 4.18398 745 ft 132 kts 226°
2026-04-30 19:32 52.20845 4.17134 759 ft 142 kts 221°
2026-04-30 19:33 52.20292 4.15837 754 ft 137 kts 224°
2026-04-30 19:33 52.19765 4.14585 776 ft 124 kts 222°
2026-04-30 19:33 52.19582 4.13320 760 ft 111 kts 268°
2026-04-30 19:33 52.19656 4.12236 758 ft 85 kts 257°
2026-04-30 19:34 52.19375 4.11623 754 ft 54 kts 179°
2026-04-30 19:34 52.19142 4.11826 808 ft 41 kts 105°
2026-04-30 19:34 52.19183 4.12904 733 ft 51 kts 94°
2026-04-30 19:35 52.19152 4.13403 596 ft 39 kts 87°
2026-04-30 19:35 52.19103 4.13708 388 ft 13 kts 92°
2026-04-30 19:35 52.19087 4.13751 320 ft 4 kts 97°
2026-04-30 19:35 52.19090 4.13671 302 ft 16 kts 92°
2026-04-30 19:36 52.19112 4.13840 486 ft 2 kts 90°
2026-04-30 19:36 52.19115 4.13839 493 ft 0 kts 91°
2026-04-30 19:36 52.19096 4.13677 502 ft 15 kts 103°
2026-04-30 19:37 52.19068 4.13518 494 ft 11 kts 81°
2026-04-30 19:37 52.19097 4.13541 437 ft 14 kts 70°
2026-04-30 19:37 52.19117 4.13658 344 ft 3 kts 71°
2026-04-30 19:37 52.19114 4.13639 308 ft 1 kts 83°
2026-04-30 19:38 52.19113 4.13643 302 ft 1 kts 78°
2026-04-30 19:38 52.19114 4.13645 301 ft 0 kts 76°
2026-04-30 19:38 52.19114 4.13644 301 ft 0 kts 76°
2026-04-30 19:39 52.19115 4.13636 343 ft 3 kts 80°
2026-04-30 19:39 52.19103 4.13583 459 ft 5 kts 85°
2026-04-30 19:39 52.19116 4.13752 627 ft 34 kts 81°
2026-04-30 19:40 52.19092 4.14286 827 ft 61 kts 112°
2026-04-30 19:40 52.18648 4.14724 882 ft 93 kts 154°
2026-04-30 19:40 52.17931 4.14521 907 ft 119 kts 188°
2026-04-30 19:40 52.17229 4.13674 1014 ft 128 kts 203°
2026-04-30 19:41 52.16516 4.12711 1014 ft 138 kts 208°
2026-04-30 19:41 52.15753 4.11687 1015 ft 142 kts 204°
2026-04-30 19:41 52.14897 4.11127 1009 ft 130 kts 183°
2026-04-30 19:41 52.14010 4.10711 1010 ft 135 kts 183°
2026-04-30 19:42 52.13106 4.10292 1013 ft 134 kts 182°
2026-04-30 19:42 52.12217 4.09877 1009 ft 130 kts 182°
2026-04-30 19:42 52.11339 4.09473 1007 ft 135 kts 183°
2026-04-30 19:42 52.10426 4.09061 1014 ft 136 kts 182°
2026-04-30 19:43 52.09513 4.08643 1010 ft 135 kts 182°
2026-04-30 19:43 52.08622 4.08232 1004 ft 133 kts 182°
2026-04-30 19:43 52.07709 4.07814 1013 ft 137 kts 182°
2026-04-30 19:44 52.05914 4.06960 1004 ft 132 kts 182°
2026-04-30 19:44 52.05040 4.06547 1008 ft 132 kts 182°
2026-04-30 19:44 52.04159 4.06122 1009 ft 132 kts 182°
2026-04-30 19:44 52.03274 4.05805 1007 ft 128 kts 174°
2026-04-30 19:45 52.02393 4.05693 1009 ft 125 kts 171°
2026-04-30 19:45 52.01531 4.05621 1008 ft 123 kts 169°
2026-04-30 19:45 52.00711 4.05769 839 ft 118 kts 155°
2026-04-30 19:45 51.99967 4.06340 766 ft 118 kts 138°
2026-04-30 19:46 51.99456 4.07330 766 ft 115 kts 117°
2026-04-30 19:46 51.99044 4.08447 757 ft 115 kts 116°
2026-04-30 19:46 51.98620 4.09550 722 ft 119 kts 120°
2026-04-30 19:46 51.98099 4.10589 722 ft 119 kts 126°
2026-04-30 19:47 51.97556 4.11586 725 ft 120 kts 126°
2026-04-30 19:47 51.97181 4.12270 724 ft 120 kts 126°
2026-04-30 19:47 51.96492 4.13667 721 ft 120 kts 122°
2026-04-30 19:47 51.95987 4.14736 721 ft 120 kts 122°
2026-04-30 19:48 51.95480 4.15820 721 ft 121 kts 122°
2026-04-30 19:48 51.94976 4.16916 722 ft 121 kts 122°
2026-04-30 19:48 51.94478 4.18007 721 ft 120 kts 122°
2026-04-30 19:48 51.93994 4.19083 719 ft 118 kts 121°
2026-04-30 19:49 51.93504 4.20179 718 ft 121 kts 122°
2026-04-30 19:49 51.92515 4.22396 722 ft 122 kts 121°
2026-04-30 19:49 51.92020 4.23493 719 ft 120 kts 121°
2026-04-30 19:50 51.91543 4.24601 718 ft 119 kts 115°
2026-04-30 19:50 51.91466 4.25903 721 ft 120 kts 80°
2026-04-30 19:50 51.91922 4.27104 723 ft 128 kts 49°
2026-04-30 19:50 51.92516 4.28167 710 ft 128 kts 50°
2026-04-30 19:51 51.93108 4.29248 721 ft 125 kts 50°
2026-04-30 19:51 51.93686 4.30284 716 ft 125 kts 52°
2026-04-30 19:51 51.94259 4.31309 714 ft 125 kts 51°
2026-04-30 19:51 51.94843 4.32397 718 ft 128 kts 51°
2026-04-30 19:52 51.95381 4.33534 706 ft 128 kts 61°
2026-04-30 19:52 51.95640 4.34867 713 ft 121 kts 83°
2026-04-30 19:52 51.95533 4.36110 717 ft 120 kts 105°
2026-04-30 19:52 51.95202 4.37406 716 ft 121 kts 110°
2026-04-30 19:53 51.94845 4.38627 686 ft 115 kts 111°
2026-04-30 19:53 51.94527 4.39752 654 ft 105 kts 108°
2026-04-30 19:53 51.94484 4.40807 567 ft 88 kts 77°
2026-04-30 19:53 51.94730 4.41618 521 ft 67 kts 59°
2026-04-30 19:54 51.94934 4.42163 388 ft 50 kts 59°
2026-04-30 19:54 51.95112 4.42582 308 ft 41 kts 59°
2026-04-30 19:54 51.95253 4.42932 145 ft 34 kts 58°
2026-04-30 19:54 51.95314 4.43282 49 ft 33 kts 103°
2026-04-30 19:55 51.95255 4.43621 43 ft 30 kts 110°
2026-04-30 19:55 51.95173 4.43886 16 ft 19 kts 107°
2026-04-30 19:55 51.95105 4.44010 -14 ft 12 kts 126°
2026-04-30 19:55 51.95096 4.44058 -43 ft 1 kts 55°